Flag for Netherlands Weather past 2 weeks in Utrecht, Netherlands

48 °F


Feels Like: 48 °F
Forecast: 45 / 58 °F
Wind: 1 mph from Southeast

Location: Amsterdam Schiphol Airport

Current Time: Oct 9, 2015 at 7:28:22 AM

Latest Report: Oct 9, 2015 at 6:55 AM

Visibility: 5 mi

Pressure: 30.15 "Hg

Humidity: 94%

Dew point: 46 °F

Location of UtrechtLocation

Historic Weather in Utrecht — Graph


Utrecht temperature yesterday

Maximum temperature yesterday: 61 °F (at 11:55 AM)
Minimum temperature yesterday: 52 °F (at 9:55 PM)
Average temperature yesterday: 57 °F

Past Weeks' High & Low Weather Summary

High64 °F (Oct 3, 4:25 PM)100% (Sep 24, 6:25 AM)30.66 "Hg (Sep 24, 6:25 AM)
Low43 °F (Oct 2, 7:55 AM)55% (Sep 29, 5:25 PM)29.53 "Hg (Oct 6, 2:55 PM)
Average55 °F86%30.18 "Hg
* Reported Sep 24 6:25 AM — Oct 9 6:25 AM, Utrecht, Weather by CustomWeather, © 2015

Note: Actual official high and low records may vary slightly from our data, if they occured in-between our weather recording intervals... More about our weather records


Utrecht weather history for previous 24 hours

Time TempWeatherWind HumidityBarometerVisibility
6:25 AM
Fri, Oct 9
50 °FFog.5 mph94%30.15 "Hg5 mi
5:55 AM50 °FFog.2 mph94%30.15 "HgN/A
5:25 AM50 °FPassing clouds.3 mph100%30.15 "HgN/A
4:55 AM50 °FPassing clouds.5 mph100%30.18 "HgN/A
4:25 AM50 °FPassing clouds.1 mph100%30.18 "HgN/A
3:55 AM50 °FPassing clouds.2 mph100%30.15 "HgN/A
3:25 AM52 °FPassing clouds.3 mph94%30.15 "HgN/A
2:55 AM52 °FPassing clouds.2 mph100%30.15 "HgN/A
2:25 AM52 °FPassing clouds.2 mph100%30.15 "HgN/A
1:55 AM52 °FPassing clouds.1 mph100%30.15 "HgN/A
1:25 AM54 °FPassing clouds.1 mph94%30.15 "HgN/A
12:55 AM54 °FPartly cloudy.2 mph94%30.15 "HgN/A
12:25 AM54 °FPartly cloudy.1 mph94%30.15 "HgN/A
11:55 PM
Thu, Oct 8
54 °FPartly cloudy.3 mph94%30.18 "HgN/A
11:25 PM54 °FPartly cloudy.3 mph94%30.18 "HgN/A
10:55 PM54 °FSprinkles. Passing clouds.6 mph94%30.18 "Hg6 mi
10:25 PM54 °FPartly cloudy.5 mph94%30.18 "HgN/A
9:55 PM52 °FPassing clouds.5 mph94%30.15 "HgN/A
9:25 PM54 °FPassing clouds.7 mph94%30.15 "HgN/A
8:55 PM54 °FPassing clouds.6 mph88%30.15 "HgN/A
8:25 PM55 °FPassing clouds.5 mph88%30.15 "HgN/A
7:55 PM54 °FPartly sunny.3 mph94%30.15 "HgN/A
7:25 PM54 °FPartly sunny.3 mph94%30.15 "HgN/A
6:55 PM54 °FPartly sunny.6 mph88%30.15 "HgN/A
6:25 PM55 °FScattered clouds.7 mph82%30.12 "HgN/A
5:55 PM57 °FPassing clouds.7 mph77%30.12 "HgN/A
5:25 PM57 °FPassing clouds.10 mph82%30.12 "HgN/A
4:55 PM57 °FScattered clouds.12 mph82%30.12 "HgN/A
4:25 PM59 °FScattered clouds.9 mph77%30.12 "HgN/A
3:55 PM59 °FPartly sunny.8 mph72%30.12 "HgN/A
3:25 PM59 °FPartly sunny.9 mph72%30.12 "HgN/A
2:55 PM59 °FPartly sunny.7 mph77%30.12 "HgN/A
2:25 PM61 °FScattered clouds.9 mph77%30.12 "HgN/A
1:55 PM59 °FScattered clouds.9 mph77%30.09 "HgN/A
1:25 PM59 °FScattered clouds.9 mph77%30.09 "HgN/A
12:55 PM59 °FScattered clouds.10 mph77%30.09 "HgN/A
12:25 PM59 °FPassing clouds.12 mph77%30.09 "HgN/A
11:55 AM61 °FPassing clouds.10 mph72%30.09 "HgN/A
11:25 AM59 °FScattered clouds.10 mph77%30.09 "HgN/A
10:55 AM59 °FPassing clouds.10 mph77%30.07 "HgN/A
10:25 AM57 °FPassing clouds.10 mph82%30.07 "HgN/A
9:55 AM57 °FPassing clouds.9 mph82%30.07 "HgN/A
9:25 AM57 °FPassing clouds.8 mph88%30.04 "HgN/A
8:55 AM55 °FPassing clouds.7 mph94%30.04 "HgN/A
8:25 AM55 °FPassing clouds.7 mph94%30.04 "HgN/A
7:55 AM55 °FPartly cloudy.10 mph94%30.04 "HgN/A
7:25 AM55 °FPartly cloudy.7 mph94%30.01 "HgN/A
Weather by CustomWeather, © 2015

See weather overviewHow to use our weather pages